Wind_Speed
18 18 17 17 17 17 17 17 17 16 16 16 15 15 15 15 15 15 15 15 15 15 14 14 14 14 14 13 12 12 11 10 10 9 9 8 7 6 6 5 6 5 4
18 18 18 18 18 18 18 18 18 17 17 17 17 17 17 16 16 16 16 16 16 16 16 16 15 15 15 15 14 14 13 12 11 10 10 10 9 8 8 7 7 6 6
20 19 19 19 19 19 19 19 19 19 19 18 18 18 18 18 17 18 17 17 17 17 17 17 17 16 16 15 15 16 15 14 13 12 12 12 11 11 10 9 8 8 7
21 21 21 21 21 21 21 21 21 20 20 20 20 20 20 20 19 19 19 18 17 17 18 18 18 18 17 17 17 17 17 16 15 14 14 13 13 13 12 11 10 9 9
23 22 22 22 22 23 23 23 23 22 22 22 22 21 22 22 21 21 21 20 20 19 19 19 19 19 19 19 19 19 19 18 17 16 16 15 14 14 14 13 12 11 11
24 24 24 24 24 24 24 24 24 23 24 24 24 23 23 24 23 23 23 22 22 21 21 20 20 20 19 20 20 20 20 20 19 18 18 17 16 15 15 15 14 13 12
25 25 25 25 25 25 25 25 25 25 24 25 25 25 25 24 24 24 23 23 23 23 23 22 21 20 20 20 21 22 21 20 20 20 19 19 18 17 17 17 16 15 14
27 27 27 27 27 27 27 27 27 26 26 26 26 26 26 26 25 25 25 24 24 24 24 24 23 22 22 22 22 22 22 22 21 21 20 20 19 19 19 19 18 17 16
29 29 29 29 29 29 29 28 29 28 28 28 28 28 28 28 27 27 26 26 26 26 26 25 25 25 24 24 23 24 24 24 24 22 22 21 20 20 20 20 19 19 18
30 31 31 31 31 31 31 31 30 30 30 30 29 29 29 29 29 29 29 29 28 28 28 27 27 27 27 26 26 26 25 25 25 25 24 23 22 22 21 21 21 20 20
32 32 32 32 33 33 33 33 33 32 32 32 31 31 31 31 31 31 31 31 30 30 30 30 30 29 29 28 27 27 27 27 27 26 26 25 24 23 23 22 22 21 21
34 34 34 34 34 34 34 35 35 34 34 34 33 33 33 33 33 33 33 33 32 32 32 31 31 32 31 30 30 29 29 29 28 28 28 27 27 26 25 24 23 23 23
35 36 36 36 36 36 36 36 36 36 36 35 35 35 35 35 35 34 34 33 33 33 33 32 32 33 33 33 32 31 31 30 30 30 30 29 29 28 27 26 26 25 24
36 36 37 37 37 38 37 38 38 38 37 37 37 37 37 37 36 36 36 35 35 35 35 35 35 35 35 35 34 34 33 33 32 32 32 31 30 30 30 29 28 27 26
37 38 38 39 39 39 39 39 40 39 39 39 39 39 39 39 39 38 37 38 38 37 37 37 37 37 37 37 36 36 35 35 34 34 34 33 32 32 31 31 30 29 28
38 38 39 40 40 41 41 41 41 41 41 41 41 41 41 41 40 40 39 40 40 39 39 38 38 39 38 37 37 37 37 37 36 36 35 35 35 34 33 32 31 31 30
39 39 40 40 40 41 41 42 42 42 42 42 42 42 42 42 42 42 41 41 41 41 40 40 40 39 39 39 39 39 39 39 38 38 37 37 36 36 35 34 34 33 32
40 40 40 40 40 41 41 42 42 43 43 44 44 44 44 43 43 43 43 43 43 43 42 42 41 41 40 40 41 41 41 40 40 39 39 39 38 38 37 36 36 35 34
42 42 42 42 42 42 42 42 42 43 43 44 44 44 44 44 44 44 45 45 44 44 44 43 43 42 42 42 42 42 42 42 42 42 41 41 40 40 39 39 38 37 36
43 44 44 44 43 43 43 43 43 44 44 45 45 45 45 46 46 46 47 47 46 46 46 45 45 44 44 43 44 43 43 44 44 44 43 43 42 42 41 41 41 40 39
45 45 45 45 45 45 45 44 44 44 45 45 45 45 45 46 46 47 47 47 47 47 47 47 46 46 46 45 45 45 45 45 45 45 45 45 44 44 43 43 43 44 42
45 45 45 45 46 46 47 46 46 45 45 45 45 45 45 46 47 47 47 47 48 48 48 48 47 47 47 47 47 47 46 46 46 46 46 46 46 46 45 45 44 44 44
44 44 45 45 45 46 46 46 46 46 45 45 45 45 46 46 47 48 48 48 48 48 48 48 49 48 48 49 49 48 48 48 48 48 48 47 47 47 47 46 46 45 45
44 45 45 45 45 45 45 45 45 46 46 45 45 46 46 46 47 47 48 48 49 49 49 49 49 49 49 49 49 50 50 49 49 48 48 48 48 48 48 48 47 47 47
43 44 45 45 46 46 46 46 46 47 47 47 47 47 47 47 47 47 48 48 49 49 49 49 50 50 50 51 50 50 50 50 50 50 50 50 50 49 49 50 49 48 48
44 44 45 46 46 47 47 47 47 48 48 48 48 49 49 49 49 48 48 49 49 49 50 50 51 52 52 52 52 51 51 51 52 52 51 52 52 51 51 51 51 50 50
Wind_Direction
247 246 246 247 249 250 250 248 248 248 248 248 250 251 251 250 248 246 247 246 246 246 245 244 243 243 243 241 240 240 238 235 232 231 230 229 228 225 225 225 220 216 212
248 247 247 248 249 250 251 250 249 249 248 249 250 251 251 251 250 250 250 249 249 249 248 247 247 247 245 242 241 241 240 239 236 235 233 230 229 228 228 233 229 227 225
250 250 250 250 250 251 251 251 249 249 249 250 250 250 251 251 251 253 254 253 252 252 250 248 248 248 246 243 242 242 241 240 238 237 237 234 232 233 232 235 232 229 230
252 252 252 252 252 252 252 252 251 250 251 251 250 250 250 252 252 253 255 255 255 254 252 250 249 249 249 246 243 242 243 241 240 240 240 241 238 236 236 237 237 234 233
253 254 254 253 254 254 253 254 253 253 253 253 252 252 251 252 252 252 254 255 255 255 253 253 251 251 250 248 245 244 244 244 241 242 242 242 240 237 238 239 239 239 238
253 254 254 254 254 254 255 255 254 254 254 254 254 253 252 251 251 251 252 254 254 255 255 254 255 252 250 249 246 245 245 245 242 241 242 242 242 238 239 239 240 240 240
254 254 255 255 255 254 255 255 255 255 254 254 253 253 253 252 252 252 251 252 253 254 255 255 254 252 252 250 248 245 245 246 243 242 241 241 241 240 240 240 241 242 243
253 254 255 255 255 255 256 256 256 255 255 254 253 253 254 254 253 254 253 254 254 255 256 255 254 254 255 253 250 248 246 246 245 244 242 242 241 241 243 242 242 244 246
254 254 255 255 255 255 256 256 255 255 256 256 255 254 254 255 255 255 255 256 256 256 256 255 256 256 256 256 253 250 248 248 247 246 245 243 242 241 242 243 243 245 247
255 255 255 256 256 256 256 257 257 257 257 256 256 256 256 256 257 256 256 255 255 255 256 255 255 255 255 255 254 252 250 249 247 247 247 246 245 243 243 244 244 245 246
257 257 257 258 258 258 258 258 258 257 257 257 257 258 258 258 257 257 256 256 254 254 254 255 254 254 254 253 253 252 250 248 248 247 246 247 246 245 245 245 245 246 246
258 258 258 259 259 259 258 258 258 258 257 257 258 258 259 259 258 258 256 256 256 255 255 254 254 254 253 252 252 251 250 249 247 247 246 247 247 247 246 245 246 246 247
259 259 259 259 259 259 258 258 258 258 258 258 257 258 258 259 257 257 256 256 256 255 254 254 254 254 253 252 251 250 250 250 248 248 247 247 248 247 247 246 246 247 246
260 260 259 259 259 259 259 258 258 258 258 258 257 257 257 258 258 258 257 257 256 256 256 256 256 255 254 253 251 250 249 250 249 248 247 247 247 247 248 248 247 247 246
260 260 259 259 259 259 259 259 259 259 259 259 259 258 258 257 257 257 258 258 258 257 256 256 256 255 255 253 252 252 251 251 251 249 247 247 247 247 248 247 247 247 247
261 261 261 261 260 260 260 260 260 259 259 259 259 259 258 257 257 256 257 257 257 257 256 256 256 256 255 254 253 253 253 252 252 251 250 249 248 247 247 248 248 248 248
263 262 262 261 261 261 260 260 260 260 260 260 260 260 259 258 257 256 256 256 257 257 257 257 256 256 256 254 253 253 252 252 251 251 251 250 249 248 247 248 248 248 249
262 262 263 262 262 262 262 261 261 261 260 260 260 260 260 259 258 256 256 256 256 257 258 258 257 256 256 255 253 252 252 251 251 251 250 250 249 249 248 248 249 249 250
261 261 262 263 263 263 263 263 262 262 262 261 260 260 259 259 258 257 257 256 257 258 258 258 258 257 256 255 254 253 252 252 251 251 250 250 249 248 248 248 249 249 250
261 261 262 263 262 262 263 263 263 263 263 262 261 260 259 258 258 258 257 257 257 258 258 258 258 257 255 255 254 253 253 252 252 251 251 250 250 249 248 249 249 250 249
262 262 263 262 262 263 263 263 264 264 264 263 263 262 260 259 258 258 258 258 258 258 258 258 257 256 256 255 254 253 253 253 252 251 251 251 250 250 249 249 249 250 250
263 263 263 263 263 263 263 263 264 264 264 264 262 261 260 259 259 258 258 258 258 258 258 258 257 256 255 255 255 254 254 252 252 252 252 251 251 250 249 249 249 249 250
263 263 263 264 264 263 263 263 263 263 263 262 261 261 261 260 260 260 259 258 259 259 258 257 257 256 256 255 255 255 254 253 252 252 251 251 251 249 249 248 249 249 249
264 264 264 264 264 264 263 263 263 263 263 262 262 261 261 261 261 260 260 259 259 259 259 257 256 255 255 256 255 255 254 254 252 251 250 250 250 250 249 249 249 249 249
264 264 264 264 264 264 264 263 263 262 262 262 262 261 261 261 261 261 260 259 258 259 259 258 256 256 255 255 255 255 255 254 253 252 250 250 250 250 249 249 249 249 249
264 264 264 264 264 264 263 263 263 263 263 263 262 261 261 261 261 261 261 260 259 259 259 258 257 256 256 255 255 255 255 255 254 253 252 250 251 251 250 249 249 249 249
Height
5825 5826 5827 5828 5828 5830 5830 5831 5832 5833 5834 5835 5835 5836 5837 5837 5838 5839 5840 5841 5842 5842 5843 5844 5845 5846 5847 5848 5849 5849 5850 5851 5852 5853 5854 5855 5856 5856 5857 5858 5858 5859 5859
5822 5822 5824 5824 5825 5826 5827 5828 5829 5830 5831 5832 5833 5834 5834 5835 5836 5836 5837 5838 5839 5840 5841 5842 5843 5844 5845 5846 5847 5847 5848 5849 5850 5851 5852 5853 5854 5855 5856 5857 5857 5858 5858
5819 5819 5820 5821 5822 5823 5824 5825 5826 5827 5828 5829 5830 5830 5831 5832 5833 5834 5834 5835 5836 5837 5838 5839 5840 5841 5842 5843 5844 5845 5846 5848 5848 5849 5851 5852 5853 5854 5855 5855 5856 5857 5857
5815 5816 5817 5818 5819 5820 5820 5821 5822 5823 5824 5825 5826 5827 5828 5828 5829 5830 5831 5832 5833 5834 5835 5836 5837 5838 5839 5840 5841 5843 5844 5845 5846 5847 5848 5850 5851 5852 5853 5854 5855 5855 5856
5811 5812 5813 5814 5815 5816 5816 5817 5818 5819 5820 5821 5822 5823 5824 5824 5825 5826 5827 5828 5829 5831 5832 5833 5834 5835 5836 5837 5838 5839 5841 5842 5844 5845 5846 5847 5848 5849 5851 5852 5853 5854 5854
5807 5808 5808 5809 5810 5811 5812 5813 5813 5814 5815 5817 5818 5819 5819 5820 5821 5822 5823 5824 5825 5827 5828 5829 5830 5831 5832 5833 5835 5836 5837 5839 5840 5842 5843 5845 5846 5847 5848 5849 5850 5851 5852
5802 5803 5804 5805 5806 5806 5807 5808 5809 5809 5810 5811 5813 5814 5814 5815 5817 5818 5819 5820 5821 5822 5823 5824 5825 5827 5828 5829 5831 5832 5834 5835 5837 5838 5840 5841 5843 5844 5845 5846 5848 5849 5850
5797 5798 5798 5799 5800 5801 5802 5803 5804 5804 5805 5806 5807 5808 5809 5810 5812 5813 5814 5815 5816 5817 5819 5820 5821 5822 5823 5825 5826 5828 5829 5831 5833 5834 5836 5838 5839 5840 5842 5843 5844 5846 5847
5791 5792 5793 5794 5794 5795 5796 5797 5798 5799 5799 5800 5801 5802 5803 5805 5806 5807 5808 5810 5811 5812 5813 5815 5816 5817 5818 5820 5821 5823 5825 5827 5828 5830 5832 5834 5835 5837 5838 5839 5841 5842 5844
5785 5786 5787 5788 5788 5789 5790 5791 5792 5793 5793 5794 5795 5796 5797 5798 5800 5801 5802 5804 5805 5806 5807 5809 5810 5811 5813 5814 5816 5818 5819 5821 5823 5825 5828 5829 5831 5832 5834 5835 5837 5839 5840
5778 5779 5780 5781 5782 5783 5783 5784 5785 5786 5787 5788 5789 5790 5791 5792 5793 5794 5795 5797 5798 5799 5801 5802 5803 5805 5807 5808 5810 5812 5814 5816 5818 5820 5822 5824 5826 5828 5830 5831 5833 5834 5836
5771 5772 5773 5773 5774 5775 5776 5777 5777 5778 5779 5780 5781 5783 5784 5785 5786 5787 5788 5789 5790 5792 5793 5795 5796 5798 5800 5801 5803 5805 5807 5810 5812 5814 5816 5819 5821 5822 5824 5827 5828 5830 5831
5763 5764 5765 5766 5766 5767 5768 5768 5769 5770 5771 5772 5773 5775 5776 5777 5778 5779 5780 5781 5782 5784 5785 5787 5789 5790 5792 5794 5796 5798 5801 5803 5805 5808 5810 5812 5815 5817 5819 5821 5823 5825 5826
5755 5756 5756 5757 5758 5758 5759 5760 5760 5761 5762 5763 5765 5766 5767 5768 5769 5770 5771 5773 5774 5776 5777 5779 5780 5782 5784 5786 5788 5790 5793 5795 5798 5801 5803 5806 5808 5810 5813 5815 5817 5819 5821
5747 5747 5747 5748 5749 5749 5750 5750 5751 5752 5753 5754 5755 5756 5758 5759 5760 5761 5762 5764 5765 5767 5768 5770 5772 5774 5775 5778 5780 5782 5784 5787 5790 5793 5795 5798 5801 5804 5806 5808 5811 5813 5815
5738 5738 5738 5738 5739 5740 5740 5741 5742 5742 5743 5744 5745 5746 5747 5749 5750 5752 5753 5754 5756 5757 5759 5761 5763 5764 5766 5769 5771 5773 5776 5778 5781 5784 5787 5790 5793 5796 5799 5801 5804 5806 5808
5728 5728 5728 5728 5729 5729 5730 5731 5732 5732 5733 5734 5735 5736 5737 5738 5740 5741 5743 5744 5746 5747 5749 5751 5753 5755 5757 5759 5761 5764 5767 5769 5772 5775 5779 5782 5785 5788 5791 5794 5796 5799 5801
5718 5718 5718 5719 5719 5719 5720 5721 5721 5722 5723 5723 5724 5725 5726 5728 5729 5730 5732 5734 5736 5738 5739 5741 5743 5745 5747 5749 5751 5754 5757 5760 5762 5766 5769 5773 5776 5779 5782 5785 5788 5791 5794
5707 5708 5708 5708 5709 5709 5710 5710 5711 5711 5712 5712 5713 5714 5715 5716 5718 5719 5721 5723 5725 5727 5729 5731 5733 5735 5737 5739 5741 5743 5746 5749 5752 5756 5759 5763 5766 5770 5773 5777 5780 5783 5785
5696 5697 5697 5698 5698 5698 5699 5699 5700 5700 5700 5701 5702 5703 5704 5705 5707 5708 5710 5712 5714 5716 5718 5720 5722 5724 5726 5728 5730 5733 5735 5738 5742 5745 5749 5752 5756 5759 5763 5767 5770 5773 5776
5685 5685 5686 5686 5687 5687 5688 5688 5689 5689 5689 5689 5690 5691 5692 5693 5695 5697 5698 5700 5702 5704 5706 5708 5710 5712 5715 5717 5720 5722 5725 5728 5731 5734 5737 5741 5745 5748 5752 5756 5760 5763 5767
5673 5674 5674 5675 5675 5675 5676 5676 5677 5677 5677 5677 5678 5679 5680 5682 5683 5685 5687 5688 5690 5692 5694 5696 5698 5700 5703 5705 5708 5711 5714 5717 5720 5722 5726 5729 5733 5737 5741 5745 5749 5752 5756
5661 5662 5662 5663 5663 5663 5664 5664 5664 5665 5665 5666 5666 5668 5669 5670 5672 5673 5675 5676 5678 5680 5682 5684 5686 5688 5691 5693 5696 5699 5702 5705 5709 5711 5714 5718 5721 5725 5729 5733 5737 5741 5745
5650 5650 5650 5650 5651 5651 5652 5652 5652 5653 5653 5654 5655 5656 5657 5658 5660 5661 5663 5664 5666 5668 5670 5671 5673 5676 5678 5681 5683 5686 5689 5693 5696 5700 5703 5706 5709 5713 5717 5721 5726 5730 5733
5637 5638 5638 5638 5639 5639 5639 5640 5640 5641 5641 5642 5643 5644 5645 5646 5647 5649 5650 5652 5653 5655 5657 5659 5661 5663 5666 5668 5670 5673 5676 5679 5683 5686 5690 5694 5697 5701 5705 5709 5713 5717 5721
5625 5625 5625 5626 5626 5626 5627 5627 5628 5628 5629 5630 5630 5632 5633 5634 5635 5636 5637 5639 5640 5642 5644 5646 5648 5650 5652 5654 5657 5659 5662 5666 5670 5673 5677 5681 5685 5688 5692 5696 5700 5704 5708